TimeMDT,TemperatureF,Dew PointF,Humidity,Sea Level PressureIn,VisibilityMPH,Wind Direction,Wind SpeedMPH,Gust SpeedMPH,PrecipitationIn,Events,Conditions,WindDirDegrees,DateUTC
12:54 AM,26.1,19.0,75,30.25,10.0,SSW,3.5,-,N/A,,Overcast,210,2012-10-27 06:54:00
1:54 AM,27.0,19.9,75,30.22,10.0,SW,5.8,-,N/A,,Overcast,220,2012-10-27 07:54:00
2:54 AM,28.0,19.9,72,30.22,10.0,WSW,9.2,-,N/A,,Overcast,240,2012-10-27 08:54:00
3:54 AM,30.0,19.0,64,30.19,10.0,WSW,18.4,26.5,N/A,,Overcast,240,2012-10-27 09:54:00
4:54 AM,30.0,19.0,64,30.19,10.0,West,9.2,17.3,N/A,,Overcast,270,2012-10-27 10:54:00
5:54 AM,30.9,19.9,64,30.19,10.0,West,19.6,35.7,N/A,,Overcast,260,2012-10-27 11:54:00
6:54 AM,30.9,21.0,67,30.20,10.0,SW,12.7,-,N/A,,Overcast,230,2012-10-27 12:54:00
8:54 AM,30.0,21.0,69,30.22,10.0,South,3.5,-,N/A,,Overcast,170,2012-10-27 14:54:00
9:54 AM,30.9,21.9,69,30.22,10.0,SW,11.5,-,N/A,,Mostly Cloudy,230,2012-10-27 15:54:00
10:54 AM,33.1,24.1,70,30.22,10.0,SSW,5.8,-,N/A,,Clear,210,2012-10-27 16:54:00
12:54 PM,39.9,28.9,65,30.17,10.0,West,20.7,26.5,N/A,,Mostly Cloudy,260,2012-10-27 18:54:00
1:54 PM,39.9,26.1,58,30.15,10.0,WSW,25.3,31.1,N/A,,Overcast,250,2012-10-27 19:54:00
2:54 PM,42.1,27.0,55,30.13,10.0,West,24.2,33.4,N/A,,Scattered Clouds,270,2012-10-27 20:54:00
3:54 PM,42.1,26.1,53,30.11,10.0,West,25.3,32.2,N/A,,Scattered Clouds,260,2012-10-27 21:54:00
4:54 PM,39.9,24.1,53,30.13,10.0,West,23.0,34.5,N/A,,Partly Cloudy,260,2012-10-27 22:54:00
5:54 PM,39.0,26.1,60,30.13,10.0,WSW,16.1,-,N/A,,Mostly Cloudy,250,2012-10-27 23:54:00
6:54 PM,37.0,25.0,62,30.15,10.0,West,16.1,-,N/A,,Mostly Cloudy,260,2012-10-28 00:54:00
7:54 PM,37.9,25.0,60,30.14,10.0,West,23.0,28.8,N/A,,Overcast,260,2012-10-28 01:54:00
8:54 PM,37.9,25.0,60,30.17,10.0,West,11.5,-,N/A,,Overcast,270,2012-10-28 02:54:00
9:54 PM,37.9,26.1,62,30.16,10.0,West,10.4,-,N/A,,Overcast,260,2012-10-28 03:54:00
10:54 PM,37.9,26.1,62,30.15,10.0,West,9.2,-,N/A,,Overcast,260,2012-10-28 04:54:00
11:54 PM,37.9,26.1,62,30.14,10.0,SSW,3.5,-,N/A,,Overcast,210,2012-10-28 05:54:00